Temperature
13 13 12 10 10 10 9 9 8 9 8 7 5 5 4 3 1 -1 -2 -3 -4 -5 -5 -6 -7 -8 -9 -10 -10 -11 -11 -12 -12 -12 -13 -14 -14 -14 -15 -14 -14 -14 -14 -14
11 12 10 9 9 9 9 9 9 8 7 6 6 5 4 2 -1 -2 -3 -4 -5 -5 -6 -6 -8 -8 -9 -10 -10 -11 -11 -12 -12 -13 -13 -14 -14 -14 -15 -14 -14 -14 -14 -14
10 12 10 9 11 9 9 9 9 8 7 6 5 4 2 0 -2 -3 -4 -4 -5 -5 -6 -7 -8 -9 -9 -9 -10 -11 -11 -12 -13 -13 -14 -14 -14 -14 -14 -14 -14 -14 -14 -14
9 9 9 11 8 9 9 9 9 9 8 6 4 3 0 -1 -2 -3 -4 -4 -5 -5 -6 -7 -8 -8 -9 -9 -10 -11 -12 -12 -13 -14 -14 -14 -14 -14 -14 -14 -14 -14 -14 -14
7 8 9 9 7 7 8 7 9 8 7 5 4 2 -2 -2 -3 -4 -4 -4 -5 -6 -7 -7 -8 -8 -9 -9 -10 -11 -12 -12 -13 -14 -14 -14 -14 -14 -14 -14 -14 -14 -14 -14
6 6 8 10 7 7 7 5 7 7 5 4 2 -0 -2 -3 -3 -3 -3 -4 -5 -6 -7 -7 -8 -9 -9 -10 -11 -12 -12 -12 -13 -14 -14 -14 -14 -14 -14 -14 -14 -14 -14 -13
6 6 8 7 6 6 5 7 6 5 4 3 1 -1 -2 -3 -3 -3 -4 -4 -5 -6 -7 -8 -8 -9 -9 -10 -11 -11 -12 -12 -13 -13 -14 -13 -13 -13 -13 -14 -14 -14 -14 -13
7 6 7 6 5 4 5 6 5 4 3 2 0 -1 -2 -3 -3 -3 -4 -5 -5 -6 -7 -8 -8 -9 -9 -10 -10 -11 -12 -12 -13 -13 -13 -13 -14 -14 -13 -13 -14 -14 -14 -14
9 9 9 7 7 6 6 5 4 3 2 1 -1 -2 -3 -3 -3 -3 -4 -5 -6 -6 -7 -7 -8 -8 -9 -10 -10 -10 -11 -12 -12 -13 -13 -13 -14 -14 -14 -13 -13 -14 -14 -14
8 9 8 7 6 6 5 5 4 3 2 0 -1 -2 -2 -3 -3 -4 -5 -5 -6 -6 -7 -7 -8 -8 -9 -9 -9 -10 -11 -12 -12 -13 -13 -13 -14 -14 -13 -13 -13 -14 -14 -14
7 9 7 6 6 5 4 4 3 2 1 0 -1 -2 -2 -3 -3 -4 -5 -5 -6 -6 -7 -7 -8 -8 -8 -9 -9 -10 -11 -12 -12 -13 -13 -13 -14 -14 -13 -13 -13 -14 -14 -15
8 10 7 7 6 4 3 3 3 2 1 -1 -1 -1 -2 -3 -3 -4 -5 -5 -6 -6 -6 -7 -7 -8 -8 -8 -9 -10 -11 -12 -12 -13 -13 -13 -14 -14 -14 -14 -14 -14 -14 -14
11 10 9 8 5 4 3 3 2 2 1 -0 -1 -1 -2 -3 -3 -4 -5 -5 -6 -6 -6 -7 -7 -8 -8 -8 -8 -9 -11 -11 -12 -12 -13 -13 -14 -14 -15 -14 -15 -14 -14 -14
10 9 6 5 4 3 3 3 2 1 -0 -1 -1 -2 -2 -3 -3 -4 -4 -5 -5 -6 -6 -7 -7 -7 -8 -8 -8 -9 -10 -11 -12 -12 -13 -13 -13 -14 -14 -15 -15 -15 -14 -14
8 7 7 6 4 2 2 2 2 1 -1 -1 -1 -2 -2 -3 -3 -4 -4 -5 -5 -6 -6 -6 -7 -7 -8 -8 -8 -9 -9 -10 -11 -11 -12 -12 -12 -13 -13 -14 -15 -15 -15 -14
6 5 5 5 4 3 3 2 2 1 -0 -1 -1 -2 -2 -3 -3 -4 -4 -4 -5 -6 -6 -6 -7 -7 -8 -8 -8 -8 -9 -9 -10 -10 -11 -12 -12 -12 -12 -13 -14 -14 -14 -15
5 3 2 3 4 4 3 3 2 1 -0 -1 -1 -2 -2 -3 -3 -4 -4 -4 -5 -5 -5 -6 -7 -7 -8 -8 -8 -8 -8 -9 -9 -9 -10 -11 -12 -12 -12 -12 -13 -13 -13 -14
9 9 9 8 6 5 4 3 2 1 -0 -1 -1 -2 -2 -3 -3 -4 -4 -4 -5 -5 -5 -6 -6 -7 -7 -7 -8 -8 -8 -8 -9 -9 -9 -10 -11 -11 -11 -11 -12 -12 -12 -12
7 6 6 5 5 5 4 3 2 0 -1 -1 -1 -2 -2 -3 -3 -4 -4 -4 -5 -5 -5 -5 -6 -6 -7 -7 -8 -8 -8 -8 -8 -9 -9 -9 -10 -10 -10 -11 -11 -11 -11 -11
6 6 5 5 5 4 4 3 2 0 -1 -1 -2 -2 -3 -3 -3 -4 -4 -4 -4 -5 -5 -5 -5 -6 -6 -7 -7 -7 -7 -8 -8 -8 -9 -9 -9 -10 -10 -10 -10 -10 -10 -10
6 5 5 5 4 4 3 3 2 1 -0 -1 -1 -2 -3 -3 -3 -4 -4 -4 -4 -4 -5 -5 -5 -5 -6 -7 -7 -7 -7 -7 -8 -8 -8 -9 -9 -9 -10 -10 -10 -10 -10 -10
6 5 5 5 4 3 3 2 1 0 -0 -1 -2 -2 -3 -3 -3 -4 -4 -4 -4 -4 -4 -5 -5 -5 -6 -6 -7 -7 -6 -7 -7 -7 -8 -8 -9 -9 -10 -10 -11 -11 -11 -10
5 5 5 4 4 3 3 2 1 -0 -1 -1 -2 -2 -3 -3 -3 -4 -4 -4 -4 -4 -4 -4 -5 -5 -5 -6 -6 -6 -6 -6 -6 -6 -7 -8 -8 -9 -9 -10 -11 -11 -11 -11
5 4 4 4 4 3 2 2 1 -0 -1 -1 -2 -2 -3 -3 -3 -4 -4 -4 -4 -4 -4 -4 -4 -5 -5 -5 -6 -6 -6 -6 -6 -6 -7 -7 -7 -7 -8 -9 -10 -11 -11 -11
5 4 4 3 3 3 3 2 1 -1 -2 -2 -3 -3 -3 -3 -4 -4 -4 -4 -4 -4 -4 -5 -5 -5 -5 -5 -5 -6 -6 -6 -6 -6 -6 -7 -7 -7 -7 -7 -8 -9 -11 -11
5 4 4 4 4 3 3 2 1 -0 -1 -2 -3 -3 -3 -4 -4 -4 -4 -5 -4 -5 -5 -5 -5 -5 -5 -5 -6 -6 -6 -6 -6 -6 -6 -7 -7 -7 -7 -7 -7 -8 -10 -10
4 3 3 3 2 2 2 2 1 0 -0 -1 -2 -2 -3 -4 -4 -4 -5 -5 -5 -5 -5 -5 -5 -5 -5 -5 -6 -6 -6 -6 -6 -6 -6 -6 -7 -7 -7 -7 -7 -7 -9 -9
Wind_Speed
8 7 2 5 7 6 9 8 7 8 8 7 8 8 8 9 9 8 8 8 9 9 9 9 10 10 9 9 9 10 10 9 9 10 11 12 14 14 14 14 15 11 12 14
5 3 2 7 9 9 9 9 10 10 6 8 6 8 8 9 8 7 7 8 9 9 10 10 11 10 10 9 9 10 9 9 9 10 11 12 14 14 14 13 12 12 13 15
5 2 5 8 7 11 7 8 6 5 0 6 6 7 6 8 7 6 7 8 8 9 9 10 10 10 10 10 11 10 10 9 9 9 11 13 15 14 12 11 11 11 13 14
4 7 7 5 3 1 5 6 7 5 2 5 6 8 10 8 7 6 6 7 7 8 8 8 8 9 10 10 10 10 10 9 10 10 11 11 11 12 10 9 9 9 11 13
1 5 9 3 4 3 3 6 4 4 4 6 8 5 6 6 6 5 5 5 6 7 8 8 9 10 10 11 10 10 10 11 11 11 11 11 11 11 10 9 9 8 10 11
3 3 7 4 6 5 3 6 5 6 5 6 5 1 2 3 5 5 5 5 6 7 7 8 9 9 10 12 11 11 12 12 12 11 11 11 11 11 10 9 9 10 10 10
6 7 10 4 8 8 4 4 8 7 6 6 4 4 5 6 6 5 6 6 7 8 8 8 9 8 10 11 11 11 12 12 12 11 11 11 9 9 10 10 10 9 10 10
6 6 10 8 9 9 6 6 7 7 7 8 8 8 7 6 5 5 6 7 7 7 8 8 8 8 10 11 11 11 12 12 11 11 12 12 10 9 10 10 8 8 8 8
8 10 2 10 8 6 8 7 7 7 8 8 7 7 6 5 4 5 6 6 6 8 9 8 8 8 10 10 11 11 12 11 10 12 10 9 9 9 9 9 6 7 8 9
7 7 7 9 7 7 7 9 10 9 9 8 7 8 7 4 3 4 4 5 6 7 8 8 8 9 9 9 10 11 13 10 11 11 10 9 10 10 9 9 8 7 8 8
8 4 6 9 9 8 9 12 13 10 8 8 9 8 6 3 2 3 4 4 5 7 7 8 9 9 9 9 11 11 11 9 11 12 10 8 10 10 11 8 12 10 6 5
9 8 8 8 13 12 13 13 13 12 9 8 8 8 6 4 3 2 4 4 6 7 7 8 9 9 9 9 10 11 10 9 9 9 9 8 7 10 18 18 20 20 16 11
2 5 5 9 13 13 12 12 11 10 11 10 8 7 7 4 3 2 4 5 6 7 7 8 8 9 9 9 11 10 8 8 8 9 9 9 9 9 10 13 19 19 18 16
9 9 7 7 9 12 12 12 10 10 9 9 8 8 6 5 2 2 3 5 6 7 6 7 8 9 9 11 12 11 8 11 11 7 7 7 7 8 8 9 8 8 12 18
9 8 9 9 12 13 14 13 13 11 10 9 8 8 7 5 2 3 4 5 6 6 5 7 8 9 10 12 12 10 8 7 6 6 6 6 6 6 7 7 7 6 5 9
10 9 13 15 16 16 15 13 12 13 10 9 8 8 7 5 3 5 5 3 3 5 6 6 7 9 11 10 11 8 7 14 12 7 7 6 5 5 6 6 7 6 6 6
16 14 13 17 17 17 16 13 13 14 11 10 10 9 8 5 4 5 1 2 4 6 6 4 7 9 11 10 8 6 6 8 14 9 6 7 6 5 6 6 6 7 6 9
18 17 17 21 20 18 16 13 13 13 11 10 10 9 8 7 6 4 1 3 5 6 2 4 6 8 9 9 6 5 5 5 6 6 6 7 7 6 6 6 7 8 8 9
12 12 13 15 16 16 16 14 14 12 11 12 12 10 8 6 4 4 3 3 5 4 4 6 10 8 7 10 11 4 6 6 6 7 6 11 10 7 7 7 7 8 8 9
13 13 14 14 14 14 14 13 13 12 11 11 10 9 8 6 6 5 4 4 4 4 6 7 5 5 7 10 12 4 6 6 7 7 8 8 9 9 9 9 9 9 9 9
14 14 16 16 15 13 13 15 15 14 12 12 12 10 9 7 6 5 3 3 4 5 6 6 3 5 7 9 10 5 5 6 6 7 9 10 10 11 11 12 12 11 10 10
15 14 16 16 16 14 13 13 13 13 13 11 10 9 9 7 6 5 5 4 3 5 3 2 3 7 10 9 5 5 5 6 6 7 8 10 10 11 11 12 12 12 12 11
13 14 16 16 16 14 13 12 13 14 14 13 13 12 9 7 6 5 4 4 3 5 2 1 4 7 9 6 4 5 5 5 6 8 9 9 10 10 10 12 12 12 12 12
14 15 14 13 13 15 15 13 11 10 10 10 10 10 9 6 4 4 3 4 4 4 2 2 4 5 6 4 4 5 5 5 5 6 8 9 9 9 10 10 12 12 12 12
16 15 15 17 16 14 13 13 11 9 10 8 8 8 6 5 4 5 5 4 4 3 2 2 3 4 4 3 3 4 5 5 5 6 7 8 9 10 10 10 11 12 12 12
14 14 14 13 12 12 13 13 12 10 11 10 9 9 7 5 5 5 4 4 5 4 3 2 2 2 2 3 4 4 5 6 6 6 6 7 8 9 9 10 12 11 12 14
11 11 10 9 9 11 12 12 12 12 12 12 11 10 9 8 7 7 6 5 5 4 3 3 3 2 1 2 3 5 6 7 8 7 8 9 10 11 12 14 15 16 17 18
Wind_Direction
292 289 248 262 269 234 215 235 255 282 335 15 49 35 39 51 52 31 9 5 358 348 341 339 337 333 333 328 324 327 319 317 316 319 322 324 323 321 325 328 328 323 324 320
284 200 247 260 243 243 247 239 252 280 312 80 46 43 33 56 51 21 4 359 350 342 340 338 332 328 327 321 325 318 313 312 315 320 323 323 323 328 331 328 324 326 322 318
287 238 273 272 233 204 215 216 235 256 94 61 38 36 38 73 56 21 7 352 342 338 335 328 323 323 327 329 322 317 315 316 320 319 321 324 331 331 326 324 324 324 321 320
298 336 269 238 27 25 221 242 231 232 58 68 66 59 81 74 55 26 5 346 333 327 320 316 321 326 326 323 319 320 323 328 325 322 320 325 327 322 321 321 320 317 319 324
345 291 278 218 193 182 199 273 222 181 111 80 61 70 83 54 58 44 10 346 326 319 316 326 327 325 325 323 323 328 334 334 332 327 326 327 325 323 324 323 320 317 321 328
160 238 258 238 131 98 77 270 160 129 115 97 77 323 144 94 66 47 14 348 331 327 330 328 320 324 329 327 331 338 338 336 332 328 327 324 323 324 322 324 327 328 329 331
211 235 266 147 128 115 162 248 137 130 122 114 121 136 123 97 66 35 16 350 343 338 331 320 319 333 331 329 337 338 335 331 328 329 328 325 324 323 325 329 331 333 338 336
200 225 259 151 148 184 201 124 125 118 117 118 111 110 104 87 64 32 7 350 347 336 323 318 331 342 332 331 333 335 331 328 331 332 334 343 338 337 336 335 337 343 346 348
208 221 170 160 183 168 129 140 128 118 118 121 124 126 114 93 66 32 6 348 341 331 320 327 343 344 331 328 336 336 331 331 337 333 333 342 345 342 341 337 340 359 359 0
273 250 186 182 144 130 134 127 116 122 125 130 133 124 112 97 62 30 360 342 337 328 328 333 337 335 326 334 341 336 332 337 343 338 338 344 354 351 345 344 358 14 5 360
256 241 140 183 159 144 119 114 114 117 124 134 134 133 134 131 77 28 342 338 335 330 329 328 330 329 332 347 344 337 333 343 347 343 337 348 358 355 356 358 15 16 4 352
232 213 183 195 165 148 143 142 141 138 133 134 139 140 145 146 104 21 338 345 338 329 327 326 330 330 340 350 343 336 342 352 348 342 346 354 357 356 5 11 16 18 22 23
170 96 103 136 146 144 147 145 146 145 144 139 138 145 146 129 100 23 353 351 329 317 315 328 334 332 342 347 341 337 341 345 344 344 345 354 0 358 356 2 13 15 16 19
122 107 114 134 148 144 134 137 134 128 133 144 147 141 129 118 93 354 323 310 301 303 324 344 333 329 340 345 342 339 340 345 350 335 339 347 353 353 352 353 353 355 0 3
157 144 151 139 129 127 133 137 138 143 150 151 137 134 139 148 183 262 278 281 298 316 342 337 329 330 337 342 345 342 342 336 338 334 335 341 342 345 344 345 344 338 334 347
163 137 140 145 147 148 151 155 159 163 163 152 151 158 157 158 205 253 259 283 324 315 313 317 327 328 335 338 344 342 337 347 355 345 334 333 334 336 336 336 334 331 329 324
156 161 162 169 167 168 172 173 169 167 164 163 166 157 155 172 226 242 235 11 296 278 279 321 323 320 333 333 335 331 324 331 347 343 331 329 327 327 322 323 324 325 320 325
182 179 174 173 171 171 173 169 163 164 166 164 152 153 167 191 208 198 247 301 290 286 286 342 307 320 332 328 329 321 318 319 323 323 327 331 335 322 315 312 315 317 315 319
166 160 160 162 165 167 169 168 162 159 156 155 160 170 180 176 169 194 220 261 276 282 298 307 331 341 328 332 345 322 327 326 327 328 330 338 339 324 318 313 311 310 310 313
155 153 152 151 153 159 163 155 149 154 160 161 158 159 166 178 189 207 215 237 240 248 275 288 320 324 327 329 343 331 333 330 330 332 339 341 336 335 332 326 319 312 308 305
154 153 153 155 156 157 156 152 155 162 165 165 165 169 174 177 184 195 211 247 222 239 279 313 343 316 323 334 342 333 334 336 336 336 342 343 341 340 339 335 334 333 327 318
157 157 158 157 156 156 153 154 157 160 163 166 164 161 162 172 186 204 224 227 244 279 291 299 303 319 335 345 337 328 337 346 343 341 342 343 343 341 339 335 339 343 341 336
159 161 161 163 162 156 149 156 160 165 170 172 172 173 175 180 182 190 212 200 215 267 269 246 308 332 346 354 333 333 340 349 345 343 342 340 341 340 338 335 336 337 339 341
161 163 162 153 144 148 159 165 161 167 169 169 172 172 170 171 183 201 171 170 211 256 234 260 318 347 4 356 332 334 335 333 332 339 339 337 338 338 338 337 334 332 335 337
161 159 155 154 160 167 162 153 151 157 162 169 172 175 175 171 171 172 166 180 215 241 248 278 322 3 15 342 332 329 324 319 327 344 337 333 334 335 337 337 332 330 333 336
162 165 167 171 169 163 160 163 170 175 178 180 183 182 181 177 165 151 159 181 205 224 225 238 278 334 354 344 330 322 318 322 329 330 327 329 328 330 332 331 325 328 333 336
149 151 154 160 164 163 163 169 176 181 184 185 184 181 177 175 174 176 179 185 192 207 216 218 229 254 289 312 312 312 313 315 317 322 327 328 326 326 327 324 323 328 335 337
Height
1599 1596 1597 1600 1600 1599 1603 1602 1603 1593 1594 1596 1598 1598 1599 1598 1598 1598 1596 1594 1590 1586 1581 1576 1571 1565 1559 1553 1547 1541 1535 1529 1523 1517 1511 1505 1499 1494 1489 1485 1480 1475 1470 1463
1600 1595 1599 1600 1597 1597 1597 1596 1595 1594 1595 1596 1596 1597 1597 1597 1597 1596 1594 1592 1589 1584 1579 1574 1568 1563 1556 1551 1545 1539 1533 1527 1521 1515 1509 1503 1497 1492 1487 1482 1478 1473 1467 1461
1605 1594 1597 1597 1585 1589 1590 1588 1589 1591 1592 1592 1593 1595 1596 1595 1595 1595 1593 1590 1587 1583 1578 1572 1567 1562 1556 1550 1544 1538 1532 1526 1520 1513 1507 1501 1496 1491 1486 1481 1476 1471 1466 1461
1609 1605 1606 1582 1585 1583 1584 1583 1583 1585 1588 1590 1593 1594 1593 1593 1594 1593 1591 1589 1586 1581 1575 1570 1566 1561 1556 1549 1542 1537 1531 1524 1518 1512 1506 1500 1495 1490 1485 1480 1476 1471 1466 1461
1614 1612 1599 1586 1584 1585 1586 1585 1581 1583 1586 1589 1590 1593 1594 1594 1593 1592 1590 1587 1584 1579 1574 1569 1564 1559 1554 1547 1541 1535 1529 1522 1516 1511 1505 1500 1494 1489 1485 1480 1475 1471 1467 1462
1616 1617 1604 1579 1583 1583 1587 1589 1581 1582 1585 1588 1590 1594 1595 1593 1592 1590 1587 1585 1582 1578 1573 1568 1563 1558 1553 1546 1541 1534 1528 1522 1516 1511 1505 1500 1494 1489 1485 1480 1476 1471 1467 1463
1613 1613 1592 1581 1581 1585 1593 1582 1580 1582 1584 1586 1588 1591 1592 1591 1590 1588 1587 1584 1582 1578 1573 1568 1563 1558 1552 1546 1541 1535 1528 1522 1516 1511 1505 1500 1495 1490 1485 1480 1475 1471 1467 1463
1602 1605 1592 1579 1580 1583 1581 1577 1579 1582 1584 1586 1587 1588 1589 1589 1589 1588 1586 1584 1580 1577 1572 1568 1563 1558 1552 1547 1541 1535 1528 1522 1517 1511 1506 1501 1495 1490 1485 1480 1475 1471 1467 1464
1583 1580 1569 1570 1571 1573 1574 1576 1578 1581 1583 1584 1585 1586 1587 1587 1588 1587 1585 1582 1579 1576 1572 1568 1563 1558 1552 1547 1541 1535 1528 1523 1518 1512 1507 1502 1496 1490 1485 1480 1476 1472 1468 1465
1576 1567 1565 1566 1569 1570 1572 1573 1576 1579 1581 1582 1583 1583 1585 1586 1586 1585 1584 1581 1578 1574 1571 1567 1563 1558 1553 1547 1542 1535 1529 1524 1519 1513 1508 1503 1497 1492 1487 1482 1477 1473 1470 1467
1570 1563 1563 1564 1564 1567 1569 1570 1573 1576 1578 1579 1580 1581 1583 1584 1584 1584 1582 1580 1577 1574 1570 1567 1563 1558 1553 1548 1542 1536 1530 1525 1520 1514 1510 1505 1499 1494 1490 1485 1481 1477 1472 1469
1561 1554 1556 1557 1559 1562 1564 1567 1570 1572 1574 1576 1578 1579 1581 1582 1583 1583 1581 1579 1576 1573 1570 1567 1563 1558 1553 1548 1543 1536 1530 1526 1521 1516 1512 1507 1501 1495 1492 1488 1484 1479 1476 1473
1551 1550 1552 1553 1556 1558 1562 1565 1568 1570 1572 1573 1575 1577 1579 1580 1582 1581 1580 1578 1575 1572 1569 1566 1563 1559 1554 1549 1544 1538 1533 1527 1523 1518 1513 1508 1503 1497 1492 1488 1485 1481 1478 1476
1545 1547 1549 1551 1553 1556 1559 1563 1566 1568 1570 1572 1573 1575 1577 1579 1580 1579 1578 1577 1574 1571 1568 1566 1563 1559 1555 1550 1545 1540 1535 1530 1525 1520 1516 1511 1506 1500 1496 1491 1486 1483 1479 1477
1540 1542 1544 1546 1550 1552 1555 1559 1562 1565 1567 1569 1571 1574 1576 1577 1578 1577 1576 1574 1572 1570 1568 1565 1562 1559 1555 1550 1545 1541 1536 1531 1527 1522 1518 1513 1508 1503 1498 1494 1489 1485 1481 1477
1535 1538 1539 1542 1544 1547 1551 1556 1558 1561 1564 1566 1569 1571 1574 1575 1575 1575 1574 1573 1571 1569 1567 1564 1561 1558 1555 1551 1547 1542 1538 1534 1529 1524 1519 1515 1510 1505 1500 1495 1491 1487 1482 1478
1528 1530 1533 1536 1539 1542 1547 1551 1554 1557 1560 1563 1566 1568 1570 1572 1572 1572 1572 1571 1569 1568 1566 1563 1561 1558 1555 1551 1548 1544 1539 1535 1531 1526 1521 1517 1512 1508 1503 1498 1493 1488 1484 1480
1518 1522 1524 1527 1532 1537 1543 1547 1550 1554 1557 1560 1563 1565 1567 1569 1569 1569 1569 1568 1568 1566 1565 1563 1560 1557 1555 1551 1548 1545 1540 1536 1532 1527 1523 1518 1514 1510 1505 1500 1495 1489 1484 1480
1513 1517 1522 1525 1530 1535 1539 1543 1546 1551 1554 1557 1560 1562 1564 1566 1566 1566 1566 1566 1565 1565 1564 1562 1560 1557 1554 1552 1548 1545 1541 1537 1533 1528 1524 1519 1515 1510 1506 1501 1496 1491 1485 1480
1507 1513 1518 1522 1527 1532 1536 1540 1543 1547 1551 1554 1556 1559 1562 1564 1565 1565 1564 1564 1564 1563 1562 1561 1559 1556 1554 1551 1548 1544 1541 1537 1533 1528 1523 1519 1515 1510 1506 1501 1497 1492 1487 1481
1501 1507 1512 1517 1522 1528 1532 1535 1540 1544 1547 1550 1553 1556 1559 1562 1563 1564 1564 1564 1563 1562 1561 1560 1558 1555 1552 1550 1547 1544 1540 1537 1533 1528 1523 1519 1514 1510 1506 1501 1497 1493 1488 1483
1495 1501 1507 1512 1518 1522 1526 1530 1535 1540 1543 1546 1549 1552 1555 1558 1560 1562 1562 1562 1561 1560 1559 1558 1556 1554 1552 1550 1547 1544 1540 1536 1533 1528 1524 1519 1514 1510 1506 1501 1497 1493 1488 1483
1490 1496 1502 1508 1513 1517 1521 1525 1530 1534 1538 1541 1544 1547 1551 1554 1556 1558 1559 1559 1559 1558 1557 1556 1555 1553 1552 1550 1547 1544 1540 1537 1533 1529 1524 1520 1515 1511 1506 1501 1497 1493 1488 1483
1484 1491 1497 1503 1508 1511 1515 1520 1525 1529 1534 1538 1541 1545 1548 1550 1553 1555 1556 1557 1557 1557 1557 1555 1554 1552 1550 1549 1547 1544 1541 1537 1533 1530 1526 1522 1517 1512 1507 1502 1497 1492 1487 1482
1479 1485 1491 1496 1501 1505 1510 1516 1520 1525 1528 1532 1536 1539 1543 1546 1550 1552 1554 1555 1556 1556 1555 1554 1553 1551 1549 1548 1546 1544 1541 1538 1534 1531 1527 1523 1518 1513 1508 1503 1498 1492 1487 1482
1473 1478 1484 1491 1496 1500 1504 1510 1514 1518 1522 1525 1529 1533 1537 1541 1544 1547 1550 1552 1553 1553 1553 1552 1551 1550 1549 1547 1546 1544 1541 1538 1535 1531 1527 1523 1519 1514 1510 1504 1498 1492 1487 1481
1469 1475 1481 1487 1492 1495 1500 1505 1510 1513 1517 1520 1524 1529 1532 1536 1540 1543 1545 1547 1548 1549 1549 1549 1549 1548 1547 1546 1544 1543 1541 1538 1534 1531 1527 1523 1519 1515 1510 1505 1499 1492 1487 1481